Regional Weather Roundup
Issued by NWS Little Rock, AR

Home | Current Version | Previous Version | Text Only | Print | Product List | Glossary On
Versions: 1 2 3 4 5 6 7 8 9 10 11 12 13 14 15 16 17 18 19 20 21 22 23 24 25 26 27 28 29 30 31 32 33 34 35 36 37 38 39 40 41 42 43 44 45 46 47 48 49
000
ASUS44 KLZK 240905
RWRLZK

WEATHER ROUNDUP FOR ARKANSAS
NATIONAL WEATHER SERVICE LITTLE ROCK AR
400 AM CDT THU JUL 24 2014

NOTE: "FAIR" INDICATES FEW OR NO CLOUDS BELOW 12,000 FEET WITH NO
SIGNIFICANT WEATHER AND/OR OBSTRUCTIONS TO VISIBILITY.

ARZ001-003-010-029-241000-
NORTHWEST ARKANSAS

CITY           SKY/WX    TMP DP  RH WIND       PRES   REMARKS
FAYETTEVILLE   CLOUDY    62  62 100 CALM      30.07S FOG
FORT SMITH     CLEAR     68  66  93 W3        30.02S
HARRISON       CLOUDY    70  70 100 NE7       30.08S
BENTONVILLE    CLEAR     66  63  88 CALM      30.08R
ROGERS         CLEAR     67  64  90 CALM      30.08S
SILOAM SPGS    CLEAR     66  59  77 CALM      30.07F
HIGHFILL       CLEAR     65  64  97 CALM      30.06F
$$

ARZ004-005-016-241000-
NORTH CENTRAL ARKANSAS

CITY           SKY/WX    TMP DP  RH WIND       PRES   REMARKS
BATESVILLE     MOCLDY    66  66 100 CALM      30.02S
FLIPPIN        CLOUDY    70  70 100 NE5       30.06R
MTN HOME       CLEAR     67  67 100 CALM      30.05S
$$

ARZ040-041-241000-
WEST CENTRAL ARKANSAS

CITY           SKY/WX    TMP DP  RH WIND       PRES   REMARKS
MENA           PTCLDY    66  64  94 CALM      30.04S
MOUNT IDA      PTCLDY    65  64  97 CALM      30.01R FOG
$$

ARZ009-017-025-026-028-241000-
NORTHEAST ARKANSAS

CITY           SKY/WX    TMP DP  RH WIND       PRES   REMARKS
CORNING        PTSUNNY   68  63  83 NE8       30.04S
JONESBORO      CLOUDY    73  67  81 NE10      30.01S
NEWPORT        CLEAR     71  71 100 N10       30.01F
WALNUT RIDGE   PTCLDY    72  63  73 N12       30.02R
BLYTHEVILLE    CLOUDY    72  70  93 N10       30.01S
$$

ARZ022-023-033-042-044-241000-
CENTRAL ARKANSAS

CITY           SKY/WX    TMP DP  RH WIND       PRES   REMARKS
LITTLE ROCK    CLOUDY    70  67  90 CALM      30.02S
N LITTLE ROCK    N/A     69  69 100 N3        30.02S
JACKSONVILLE   MOCLDY    68 N/A N/A NW3       30.01F
SEARCY         MOCLDY    69  68  97 CALM      30.02S
HOT SPRINGS    MOCLDY    69  68  96 NE7       30.02S FOG
RUSSELLVILLE   CLOUDY    70  68  93 CALM      30.01S
CLINTON        CLOUDY    70  70 100 CALM      30.03S
$$

ARZ036-241000-
EAST ARKANSAS

CITY           SKY/WX    TMP DP  RH WIND       PRES   REMARKS
WEST MEMPHIS   CLEAR     70  69  97 CALM      29.98F
$$

ARZ050-053-066-070-073-241000-
SOUTHWEST ARKANSAS

CITY           SKY/WX    TMP DP  RH WIND       PRES   REMARKS
ARKADELPHIA    FOG       69  69 100 CALM      30.02R VSB 3/4
CAMDEN         CLOUDY    68  66  94 CALM      30.00S FOG
TEXARKANA      CLOUDY    69  68  96 CALM      30.01R
EL DORADO      CLOUDY    68  68 100 CALM      30.01R
$$

ARZ056-057-069-241000-
SOUTHEAST ARKANSAS

CITY           SKY/WX    TMP DP  RH WIND       PRES   REMARKS
PINE BLUFF     PTCLDY    70  68  93 NE5       30.00F
STUTTGART      CLEAR     70  64  83 CALM      30.01S
MONTICELLO     MOCLDY    73  70  90 E8        29.99S

$$




USA.gov is the U.S. government's official web portal to all federal, state and local government web resources and services.